Tracking 29892 objects as of 21-Nov-2024
HD Live streaming from Space Station
objects crossing your sky now

CZ-4C DEB

Track CZ-4C DEB now!
10-day predictions


NORAD ID: 43270
Int'l Code: 2018-031J
Perigee: 635.3 km
Apogee: 643.4 km
Inclination: 97.8 °
Period: 97.4 minutes
Semi major axis: 7010 km
RCS: Unknown
Launch date: March 31, 2018
Source: People's Republic of China (PRC)
Launch site: ()

Note: This is SATELLITE DEBRIS
Your satellite tracking list
Your tracking list is empty




NASA's NSSDC Master Catalog

Two Line Element Set (TLE):
1 43270U 18031J   24317.42102835  .00002486  00000-0  34249-3 0  9996
2 43270  97.8023  20.8218 0005793  34.0631 326.0951 14.79095132366898
Source of the keplerian elements: AFSPC